Time,TemperatureF,DewpointF,PressureIn,WindDirection,WindDirectionDegrees,WindSpeedMPH,WindSpeedGustMPH,Humidity,HourlyPrecipIn,Conditions,Clouds,dailyrainin,SoftwareType,DateUTC
2013-04-02 06:31:00,38.9,27.8,30.17,North,360,5.0,5.0,64,0.00,,,0.00,Wunderground v.1.15,2013-04-02 10:31:00,
2013-04-02 06:32:00,38.9,27.8,30.17,North,5,4.0,5.0,64,0.00,,,0.00,Wunderground v.1.15,2013-04-02 10:32:00,
2013-04-02 06:38:00,38.8,27.7,30.17,North,360,4.0,7.0,64,0.00,,,0.00,Wunderground v.1.15,2013-04-02 10:38:00,
2013-04-02 06:43:00,38.7,27.2,30.18,NE,36,4.0,5.0,63,0.00,,,0.00,Wunderground v.1.15,2013-04-02 10:43:00,
2013-04-02 06:48:00,38.7,27.2,30.18,NNE,21,3.0,5.0,63,0.00,,,0.00,Wunderground v.1.15,2013-04-02 10:48:00,
2013-04-02 06:54:00,38.7,27.6,30.18,NNE,32,3.0,5.0,64,0.00,,,0.00,Wunderground v.1.15,2013-04-02 10:54:00,
2013-04-02 06:59:00,38.6,27.1,30.19,NNE,21,2.0,5.0,63,0.00,,,0.00,Wunderground v.1.15,2013-04-02 10:59:00,
2013-04-02 07:04:00,38.5,27.0,30.19,NNW,331,3.0,5.0,63,0.00,,,0.00,Wunderground v.1.15,2013-04-02 11:04:00,
2013-04-02 07:10:00,38.3,26.8,30.19,NNW,330,3.0,5.0,63,0.00,,,0.00,Wunderground v.1.15,2013-04-02 11:10:00,
2013-04-02 07:15:00,38.2,26.7,30.19,NNW,346,3.0,7.0,63,0.00,,,0.00,Wunderground v.1.15,2013-04-02 11:15:00,
2013-04-02 07:20:00,38.2,27.1,30.19,NW,306,4.0,4.0,64,0.00,,,0.00,Wunderground v.1.15,2013-04-02 11:20:00,
2013-04-02 07:26:00,38.2,27.1,30.19,North,355,3.0,6.0,64,0.00,,,0.00,Wunderground v.1.15,2013-04-02 11:26:00,
2013-04-02 07:31:00,38.0,26.9,30.20,NNW,327,2.0,5.0,64,0.00,,,0.00,Wunderground v.1.15,2013-04-02 11:31:00,
2013-04-02 07:36:00,38.0,26.9,30.20,NW,325,2.0,7.0,64,0.00,,,0.00,Wunderground v.1.15,2013-04-02 11:36:00,
2013-04-02 07:42:00,38.0,27.6,30.20,NNE,29,3.0,3.0,66,0.00,,,0.00,Wunderground v.1.15,2013-04-02 11:42:00,
2013-04-02 07:47:00,38.2,27.8,30.20,NNE,29,1.0,3.0,66,0.00,,,0.00,Wunderground v.1.15,2013-04-02 11:47:00,
2013-04-02 07:52:00,38.5,27.0,30.20,NNE,20,0.0,2.0,63,0.00,,,0.00,Wunderground v.1.15,2013-04-02 11:52:00,
2013-04-02 07:57:00,38.8,27.7,30.21,ENE,65,1.0,4.0,64,0.00,,,0.00,Wunderground v.1.15,2013-04-02 11:57:00,
2013-04-02 08:02:00,39.1,27.6,30.21,East,89,2.0,6.0,63,0.00,,,0.00,Wunderground v.1.15,2013-04-02 12:02:00,
2013-04-02 08:08:00,39.3,27.4,30.21,ENE,76,2.0,6.0,62,0.00,,,0.00,Wunderground v.1.15,2013-04-02 12:08:00,
2013-04-02 08:14:00,39.3,26.6,30.22,NNE,18,3.0,7.0,60,0.00,,,0.00,Wunderground v.1.15,2013-04-02 12:14:00,
2013-04-02 08:19:00,39.4,27.1,30.22,ENE,57,4.0,7.0,61,0.00,,,0.00,Wunderground v.1.15,2013-04-02 12:19:00,
2013-04-02 08:25:00,39.5,26.3,30.22,NW,316,2.0,6.0,59,0.00,,,0.00,Wunderground v.1.15,2013-04-02 12:25:00,
2013-04-02 08:30:00,39.5,25.9,30.22,WNW,302,2.0,2.0,58,0.00,,,0.00,Wunderground v.1.15,2013-04-02 12:30:00,
2013-04-02 08:36:00,39.6,26.0,30.23,NW,322,2.0,3.0,58,0.00,,,0.00,Wunderground v.1.15,2013-04-02 12:36:00,
2013-04-02 08:41:00,39.9,25.9,30.23,WNW,299,1.0,6.0,57,0.00,,,0.00,Wunderground v.1.15,2013-04-02 12:41:00,
2013-04-02 08:46:00,39.6,26.0,30.23,NNW,332,3.0,7.0,58,0.00,,,0.00,Wunderground v.1.15,2013-04-02 12:46:00,
2013-04-02 08:52:00,39.6,25.6,30.23,NNW,329,5.0,5.0,57,0.00,,,0.00,Wunderground v.1.15,2013-04-02 12:52:00,
2013-04-02 08:57:00,39.9,25.5,30.23,NNW,339,4.0,7.0,56,0.00,,,0.00,Wunderground v.1.15,2013-04-02 12:57:00,
2013-04-02 09:02:00,39.8,25.4,30.23,NNW,331,5.0,5.0,56,0.00,,,0.00,Wunderground v.1.15,2013-04-02 13:02:00,
2013-04-02 18:17:00,55.0,20.7,30.16,NW,322,5.0,7.0,26,0.00,,,0.00,Wunderground v.1.15,2013-04-02 22:17:00,
2013-04-02 18:22:00,54.2,20.0,30.17,NNW,344,7.0,9.0,26,0.00,,,0.00,Wunderground v.1.15,2013-04-02 22:22:00,
2013-04-02 18:27:00,53.9,20.6,30.16,NW,311,7.0,7.0,27,0.00,,,0.00,Wunderground v.1.15,2013-04-02 22:27:00,
2013-04-02 18:32:00,54.1,20.8,30.16,NNW,344,6.0,7.0,27,0.00,,,0.00,Wunderground v.1.15,2013-04-02 22:32:00,
2013-04-02 18:37:00,54.2,19.1,30.16,NW,306,6.0,6.0,25,0.00,,,0.00,Wunderground v.1.15,2013-04-02 22:37:00,
2013-04-02 18:43:00,53.7,18.7,30.17,NW,311,7.0,9.0,25,0.00,,,0.00,Wunderground v.1.15,2013-04-02 22:43:00,
2013-04-02 18:49:00,53.0,18.1,30.16,NW,313,6.0,7.0,25,0.00,,,0.00,Wunderground v.1.15,2013-04-02 22:49:00,
2013-04-02 18:54:00,52.5,17.6,30.16,NW,319,6.0,10.0,25,0.00,,,0.00,Wunderground v.1.15,2013-04-02 22:54:00,
2013-04-02 18:59:00,52.2,18.3,30.16,NW,320,6.0,6.0,26,0.00,,,0.00,Wunderground v.1.15,2013-04-02 22:59:00,
2013-04-02 19:05:00,52.1,19.9,30.17,NW,319,5.0,6.0,28,0.00,,,0.00,Wunderground v.1.15,2013-04-02 23:05:00,
2013-04-02 19:10:00,51.9,18.9,30.17,NW,325,5.0,5.0,27,0.00,,,0.00,Wunderground v.1.15,2013-04-02 23:10:00,
2013-04-02 19:16:00,51.7,19.6,30.17,NW,317,5.0,6.0,28,0.00,,,0.00,Wunderground v.1.15,2013-04-02 23:16:00,
2013-04-02 19:22:00,51.4,18.5,30.17,North,355,3.0,5.0,27,0.00,,,0.00,Wunderground v.1.15,2013-04-02 23:22:00,
2013-04-02 19:28:00,51.1,19.1,30.18,NNW,330,4.0,7.0,28,0.00,,,0.00,Wunderground v.1.15,2013-04-02 23:28:00,
2013-04-02 19:33:00,50.9,19.7,30.18,North,355,4.0,4.0,29,0.00,,,0.00,Wunderground v.1.15,2013-04-02 23:33:00,
2013-04-02 19:39:00,50.7,19.6,30.18,NW,311,3.0,5.0,29,0.00,,,0.00,Wunderground v.1.15,2013-04-02 23:39:00,
2013-04-02 19:45:00,50.6,21.0,30.18,NW,313,4.0,6.0,31,0.00,,,0.00,Wunderground v.1.15,2013-04-02 23:45:00,
2013-04-02 19:50:00,50.4,20.1,30.18,NW,311,4.0,4.0,30,0.00,,,0.00,Wunderground v.1.15,2013-04-02 23:50:00,
2013-04-02 19:57:00,50.2,19.9,30.17,NNW,342,3.0,4.0,30,0.00,,,0.00,Wunderground v.1.15,2013-04-02 23:57:00,
2013-04-02 20:02:00,49.9,21.2,30.18,NW,313,3.0,4.0,32,0.00,,,0.00,Wunderground v.1.15,2013-04-03 00:02:00,
2013-04-02 20:07:00,49.7,19.5,30.18,NNW,338,5.0,8.0,30,0.00,,,0.00,Wunderground v.1.15,2013-04-03 00:07:00,
2013-04-02 20:13:00,49.4,19.2,30.18,NW,322,6.0,6.0,30,0.00,,,0.00,Wunderground v.1.15,2013-04-03 00:13:00,
2013-04-02 20:19:00,49.2,19.0,30.18,NNW,333,5.0,8.0,30,0.00,,,0.00,Wunderground v.1.15,2013-04-03 00:19:00,
2013-04-02 20:26:00,49.0,18.9,30.19,NW,306,6.0,7.0,30,0.00,,,0.00,Wunderground v.1.15,2013-04-03 00:26:00,
2013-04-02 20:31:00,48.9,21.0,30.19,WNW,294,5.0,5.0,33,0.00,,,0.00,Wunderground v.1.15,2013-04-03 00:31:00,
2013-04-02 20:36:00,48.8,20.2,30.19,West,269,3.0,5.0,32,0.00,,,0.00,Wunderground v.1.15,2013-04-03 00:36:00,
2013-04-02 20:42:00,48.5,19.9,30.19,WNW,284,4.0,5.0,32,0.00,,,0.00,Wunderground v.1.15,2013-04-03 00:42:00,
2013-04-02 20:47:00,48.4,19.9,30.19,NW,305,3.0,6.0,32,0.00,,,0.00,Wunderground v.1.15,2013-04-03 00:47:00,
2013-04-02 20:53:00,48.3,19.8,30.19,NW,308,3.0,6.0,32,0.00,,,0.00,Wunderground v.1.15,2013-04-03 00:53:00,
2013-04-02 20:58:00,48.2,20.4,30.19,West,263,4.0,6.0,33,0.00,,,0.00,Wunderground v.1.15,2013-04-03 00:58:00,
2013-04-02 21:04:00,48.1,20.3,30.20,WSW,254,4.0,4.0,33,0.00,,,0.00,Wunderground v.1.15,2013-04-03 01:04:00,
2013-04-02 21:10:00,48.0,19.5,30.20,West,276,3.0,7.0,32,0.00,,,0.00,Wunderground v.1.15,2013-04-03 01:10:00,
2013-04-02 21:16:00,48.0,20.9,30.21,WNW,294,4.0,7.0,34,0.00,,,0.00,Wunderground v.1.15,2013-04-03 01:16:00,
2013-04-02 21:21:00,47.9,20.8,30.22,NW,311,5.0,8.0,34,0.00,,,0.00,Wunderground v.1.15,2013-04-03 01:21:00,
2013-04-02 21:26:00,47.8,20.8,30.22,NNW,329,5.0,8.0,34,0.00,,,0.00,Wunderground v.1.15,2013-04-03 01:26:00,
2013-04-02 21:31:00,47.7,20.7,30.22,NW,314,5.0,5.0,34,0.00,,,0.00,Wunderground v.1.15,2013-04-03 01:31:00,
2013-04-02 21:37:00,47.6,21.9,30.22,NW,317,4.0,5.0,36,0.00,,,0.00,Wunderground v.1.15,2013-04-03 01:37:00,
2013-04-02 21:42:00,47.5,20.5,30.22,North,360,4.0,7.0,34,0.00,,,0.00,Wunderground v.1.15,2013-04-03 01:42:00,
2013-04-02 21:47:00,47.2,19.5,30.22,North,350,6.0,12.0,33,0.00,,,0.00,Wunderground v.1.15,2013-04-03 01:47:00,